Molniya-3

operational
NORAD ID: 21706 Int'l Des: 1991-065 Owner: UNKSR/MSVYAZ Country: SU
MEOELLIPTICALHEO_ELLIPTICALSEMI_SYNCMOLNIYA

Über Molniya-3

Beschreibung wird geladen...

Live-Position

3D-Globus wird geladen...

Nächste Überflüge

Höhenverlauf

Altitude vs Time

uPlot chart will show altitude changes over time

Zweizeiliger Elementsatz

1 21706U 91065A 26070.64070911 -.00000740 00000-0 24160-3 0 9998
2 21706 63.0237 336.5839 7429834 252.3690 20.4200 2.04469181254723
Epoch: 11. März 2026 • Age: 68 hours

Aktueller Status

Höhe 38471.5 km
Geschwindigkeit 1.61 km/s
Subsatellitenpunkt 61.01°N, 75.95°W
Startdatum 17. Sept. 1991
Alter 34.4 years
Typ other

Technische Details

Klassifizierung Payload
Masse 1750.00 kg
Trockenmasse 1700.00 kg
Gesamtmasse 1750.00 kg
Länge 3.60 m
Durchmesser 1.60 m
Spannweite 8.10 m
Form Cyl + 6 Pan
Hersteller NPOPM
Bus-Typ Molniya-3
Phasenstatus In Orbit
Besitzer/Staat UNKSR/MSVYAZ/SU

Große Konstellationen

Loading constellations...